Regional Weather Roundup
Issued by NWS

Home | Current Version | Previous Version | Text Only | Print | Product List | Glossary On
Versions: 1 2 3 4 5 6 7 8 9 10 11 12 13 14 15 16 17 18 19 20 21 22 23 24 25 26 27 28 29 30 31 32 33 34 35 36 37 38 39 40 41 42 43 44 45 46 47 48 49 50
824
ASUS45 KCYS 261110
RWRWY

WYOMING REGIONAL WEATHER ROUNDUP
NATIONAL WEATHER SERVICE CHEYENNE WY
500 AM MDT TUE SEP 26 2017

NOTE:  "FAIR" INDICATES FEW OR NO CLOUDS BELOW 12,000 FEET
WITH NO SIGNIFICANT WEATHER AND/OR OBSTRUCTIONS TO VISIBILITY.

WYZ001-261200-
YELLOWSTONE NATIONAL PARK

CITY           SKY/WX    TMP DP  RH WIND       PRES   REMARKS
LK YELLOWSTONE NOT AVBL
W YELLOWSTONE  NOT AVBL

$$
WYZ002>013-054>058-071-098>099-261200-
NORTHERN WYOMING

CITY           SKY/WX    TMP DP  RH WIND       PRES   REMARKS
JACKSON        CLOUDY    31  29  92 S5        30.21S WCI  26
CODY           FAIR      35  31  85 S5        30.15R WCI  31
GREYBULL       CLOUDY    43  40  89 S3        30.12R
WORLAND        FAIR      36  36 100 S6        30.12R WCI  31
SHERIDAN       CLOUDY    33  32  96 N5        30.08R WCI  29
BUFFALO        FAIR      40  25  55 SW7       30.10S
GILLETTE       FAIR      41  37  86 SW10      30.08S
HULETT         FAIR      41  37  87 SW6       30.10S
NEWCASTLE      FAIR      37  37 100 CALM      30.13R

$$
WYZ014>020-022>026-101>103-261200-
CENTRAL WYOMING

CITY           SKY/WX    TMP DP  RH WIND       PRES   REMARKS
BIG PINEY      FAIR      24  22  91 E8        30.20S WCI  15
PINEDALE       FAIR      25  25 100 W3        30.21S
DUBOIS         CLOUDY    30  27  86 NW10      30.19R WCI  21
LANDER         MOCLDY    37  31  78 SW7       30.15R WCI  32
RIVERTON       FAIR      35  34  96 W5        30.16R WCI  31
CASPER         FAIR      35  32  88 SW6       30.14S WCI  30
DOUGLAS        FAIR      32  30  92 CALM      30.14S

$$
WYZ021-027>030-104>119-261200-
SOUTHERN WYOMING

CITY           SKY/WX    TMP DP  RH WIND       PRES   REMARKS
EVANSTON       FAIR      33  29  85 E5        30.19S WCI  29
FORT BRIDGER   FAIR      37  30  75 SW3       30.22S
ROCK SPRINGS   FAIR      32  27  81 CALM      30.19S
DIXON          FAIR      30  27  87 E5        30.21S WCI  25
RAWLINS        FAIR      30  26  85 CALM      30.18R
SARATOGA       FAIR      30  30 100 S7        30.19F WCI  23
LARAMIE        FAIR      27  24  89 S6        30.17S WCI  20
CHEYENNE       FAIR      39  36  89 W12       30.16S WCI  32
TORRINGTON     FAIR      35  35 100 CALM      30.12S
PINE BLUFFS    FAIR      36  36 100 MISG      30.16S

$$




USA.gov is the U.S. government's official web portal to all federal, state and local government web resources and services.